Showing default

EGS (AJISAI), 16908

Orbit data source: Space-Track

EGS (AJISAI), 16908 is a payload satellite owned by NASDA (JP) in LEO that was launched on Tue, 12 Aug 1986 UTC via an H-1 launch vehicle from the Tanegashima Space Center (TNSTA). Payloads include a variety of satellites, spacecraft, and rockets equipped with specific instruments for various scientific and technological missions. These include communications satellites like Starlink; space stations such as the ISS; scientific satellites like the Hubble; Earth observation satellites from companies like Planet Labs, Umbra, and HawkEye 360; GPS; miniature CubeSats for education and research; and military/defense satellites.

Loading next visibility...
EGS (AJISAI) details
Identifier
16908, 1986-061A
Orbit
LEO
Last TLE update12 hours ago
Origin
Flag of JPNASDA (JP / JPN)
ManufacturerKawasaki
MissionOperational Civil Geodetic
Bus & MotorEGP, Unknown motor
Mass685 kg wet, 685 kg dry
Launch date (UTC)
1986-08-12 (38 years ago)
Launch vehicle
H-1
Launch site
Tanegashima Space Center (TNSTA)
Object type
Payload
Rocket body
Debris
Shape & HBRSphere, 2.15 m
Radar Cross Section3.631 m², Large (>1 m²)

Expand to show TLE details & history

TLE from 12 hours ago
0 EGS (AJISAI)
1 16908U 86061A   25023.18809324 -.00000082  00000-0  11137-3 0  9999
2 16908  50.0088 275.6281 0011270 323.1940 117.4702 12.44510134417235
Epoch: 2025-01-23T04:30Z
Definitive object data (Epoch: 2025-01-23T04:30:51.255Z)
Latitude49.27122°
Longitude160.95388°
Altitude1,497.116 km
Speed7.119 km/s
True Right ascension23h 25m 44s
True Declination49° 07' 01"
Sunlit
Object was in daylight at TLE epoch
Visualization TLE readout
Latitude39.71388°
Longitude-140.2621°
Altitude1,499.113 km
Speed7.116 km/s
Apparent Right ascension04h 18m 51s
Apparent Declination5° 06' 15"
Sunlit
Object is in daylight
Visualization observer readout
Local Sidereal Time17:31:03
Azimuth24.545° NE
Elevation-42.009°
Doppler factor1
Orbital elements
Apogee altitude1,497.082 km
Perigee altitude1,479.351 km
Semi-major axis7,866.353 km
Eccentricity0.001127
Inclination50.0088°
RAAN275.6281°
Arg. of periapsis323.194°
True anomaly117.58471°
Mean anomaly117.4702°
Eccentric anomaly117.52746°
Mean motion3.11088 °/min
BSTAR0.00011137
Orbital period115.72 mins
Loading maneuver chart data...
Loading historical data...
Loading historical data...
Loading historical data...
Loading historical data...
Loading historical data...
Loading historical data...
Loading historical data...
Other satellites on launch #61 in the year 1986 (1986-08-12 UTC)

EGS (AJISAI) Visibility forecast

Observer location: undefined°, undefined

Span
Click to sort rows by Start time (UTC) header in descending order
Start Az.
Max El. time (UTC)
Max El. Az.
Max El.
End time (UTC)
End Az.
13 mins2025-01-23 17:40:31.221Z173.093° S2025-01-23 17:46:31.221Z128.241° SE23.189°2025-01-23 17:53:31.221Z75.41° E
16 mins2025-01-23 19:40:31.221Z228.588° WSW2025-01-23 19:47:31.221Z166.778° S44.772°2025-01-23 19:56:31.221Z56.988° ENE
16 mins2025-01-23 21:42:31.221Z273.962° WNW2025-01-23 21:50:31.221Z351.477° N37.429°2025-01-23 21:58:31.221Z58.977° ENE
15 mins2025-01-23 23:46:31.221Z302.497° NW2025-01-23 23:53:31.221Z8.051° NNE36.586°2025-01-24 00:01:31.221Z82.065° E
17 mins2025-01-24 01:48:31.221Z304.021° NW2025-01-24 01:56:31.221Z79.761° E44.973°2025-01-24 02:05:31.221Z125.351° SE
13 mins2025-01-24 03:51:31.221Z282.855° WNW2025-01-24 03:57:31.221Z232.539° WSW26.846°2025-01-24 04:04:31.221Z178.378° S
|